sat.trackr.live / text

‹ back to catalog

STARLINK-31899

NORAD 59850 · 2024-097R

PAYLOAD ACTIVE UNKNOWN

§ Identity

Operator
Country
US
Launch date
2024-05-23
Launch site
AFETR
Launch vehicle
Mass (kg)
RCS (m²)

Purposes: comms

External: N2YO · Heavens-Above · Gunter

§ Orbital elements

Epoch: 2026-05-24T10:43:17.485824Z

Period
94.27 min
Inclination
43.0003°
Eccentricity
0.0001465
Mean motion
15.27579424 rev/d
Perigee alt
482.0 km
Apogee alt
484.1 km
Semi-major
6,861.2 km
B*
2.1044e-5
RAAN
206.4554°
Arg perigee
264.3509°
Mean anomaly
95.7176°
Rev number
11,350

§ Raw data

STARLINK-318991 59850U 24097R   26144.44673016  .00000317  00000+0  21044-4 0  99922 59850  43.0003 206.4554 0001465 264.3509  95.7176 15.27579424113501

JSON: /api/v1/satellites/59850 · /tle

For live sub-satellite position, see the globe view (requires WebGL).

§ Visibility from observer

Set your observer location to see the next 7 days of passes ≥ 10°. The values pass through the URL so the page stays shareable.

No JS? Fill the form by hand. The geolocation button needs JavaScript.